Location: Allisons_Woods
(35.8920°N, 81.8170°W)
Time: 15:51:11
(UTC-04:00)

Daily predictions for brighter satellites

Satellite Brightness Start Highest point End
(mag) Time Altitude Azimuth Time Altitude Azimuth Time Altitude Azimuth
Cosmos 1655 Rocket 4.2 20:26:15 10° SSE 20:32:20 56° E 20:38:30 10° NNE
Cosmos 44 3.2 20:30:17 10° NNW 20:34:42 62° ENE 20:39:18 10° SE
CZ-4C R/B 4.0 20:27:45 10° NW 20:34:52 49° WSW 20:42:31 10° S
Okean 2 Rocket 3.1 20:31:25 10° S 20:35:54 85° E 20:40:27 10° N
CZ-2D R/B 3.8 20:32:54 10° SE 20:36:31 40° ENE 20:40:09 10° N
ATLAS 2AS CENTAUR R/B 3.4 20:29:52 10° S 20:36:44 40° ESE 20:44:02 10° NE
Intercosmos 25 Rocket 4.1 20:37:09 10° NNW 20:40:11 45° W 20:43:28 10° SSW
BREEZE-M DEB (TANK) 2.0 20:40:33 10° SW 20:42:58 88° SE 20:48:06 10° NE
BREEZE-M DEB (TANK) 3.5 20:43:48 10° NW 20:47:00 60° NE 20:59:04 11° ESE
H-2A R/B 3.1 20:43:15 10° S 20:47:02 68° W 20:50:48 10° NNW
Delta 2 Rocket 3.7 20:43:51 10° SW 20:47:32 44° SSE 20:51:44 10° E
NOSS 2-3 (E) 3.8 20:43:05 10° SSW 20:47:34 59° ESE 20:52:37 10° NE
ALOS 4.1 20:48:02 10° SSW 20:52:15 34° W 20:56:30 10° NNW
Cosmos 839 Rocket 4.5 20:46:23 10° SW 20:52:41 68° WNW 20:58:53 10° NNE
Cosmos 2227 4.2 20:47:32 10° NNW 20:53:13 83° ENE 20:58:53 10° SSE
Resurs 1-3 3.7 20:50:37 10° SSE 20:54:53 56° ENE 20:59:12 10° N
USA 186 2.2 20:51:52 10° SSE 20:55:04 45° ENE 20:58:19 10° N
Lacrosse 5 1.9 20:50:55 10° SSW 20:55:53 58° SE 21:00:52 10° NE
Helios 1B rocket 4.0 20:53:31 10° NE 20:56:05 16° E 20:57:35 14° ESE
Cosmos 1452 Rocket 4.2 20:50:58 10° SSW 20:56:10 61° WNW 21:01:25 10° N
Cosmos 1420 Rocket 4.0 20:52:15 10° SSW 20:57:26 87° WNW 21:02:38 10° NNE
Atlas Centaur 2 3.3 20:54:35 10° W 21:02:50 56° S 21:08:53 16° ESE
Meteor 2-11 Rocket 4.4 20:58:08 10° N 21:04:14 87° E 21:10:17 10° S
Cosmos 1602 4.1 21:05:56 10° SSW 21:09:44 66° W 21:13:33 10° N
SeaSat 1 2.4 21:05:01 10° NNE 21:09:54 61° ESE 21:14:46 10° SSW
Okean 1 Rocket 3.5 21:11:49 10° SSE 21:15:50 38° E 21:19:54 10° NNE
Cosmos 1300 Rocket 3.5 21:12:29 10° S 21:16:43 63° E 21:20:59 10° NNE
GENESIS II 4.1 21:13:10 10° NNW 21:17:07 86° ENE 21:19:40 20° SSE
Cosmos 2263 Rocket 2.5 21:14:51 10° N 21:20:23 50° ENE 21:23:58 21° SE
NOSS 2-3 (C) 4.2 21:16:41 10° SW 21:21:15 68° NW 21:26:30 10° NNE
Cosmos 2322 Rocket 2.6 21:15:37 10° SSW 21:21:16 67° WNW 21:26:57 10° NNE
Cosmos 1025 Rocket 4.2 21:19:04 10° NNE 21:22:32 24° ENE 21:23:14 23° E
Meteor 1-11 Rocket 3.9 21:16:55 10° S 21:22:47 84° W 21:28:32 10° N
YAOGAN 6 3.3 21:22:13 28° ESE 21:23:14 34° ENE 21:26:27 10° N
SJ-11-01 4.4 21:21:00 18° SE 21:24:16 54° ENE 21:28:49 10° N
GPS 2-05 Rocket1 2.7 21:22:01 10° W 21:25:24 69° S 21:26:33 37° ESE
Tiangong 1 2.0 21:23:26 10° NW 21:25:59 32° NNE 21:26:47 27° NE
Cosmos 1140 Rocket 4.0 21:21:31 10° NNW 21:26:40 59° WSW 21:31:47 10° S
S3M 4.1 21:21:28 10° N 21:27:45 82° W 21:34:07 10° S
Cosmos 614 Rocket 4.2 21:22:40 10° NNW 21:27:46 68° WSW 21:32:52 10° S
Cosmos 1553 Rocket 4.2 21:22:47 10° N 21:28:55 73° W 21:34:56 10° S
Spot 2 Rocket 3.8 21:24:27 10° S 21:29:31 66° WSW 21:34:35 10° NNW
Cosmos 2266 Rocket 3.8 21:23:44 10° S 21:29:44 72° E 21:35:45 10° N
Resurs 01 Rocket 2.5 21:26:35 10° S 21:30:53 49° W 21:35:13 10° NNW
Okean 1-7 Rocket 4.5 21:28:13 10° NNE 21:32:11 30° ENE 21:32:59 28° E
SL-16 R/B 3.1 21:27:59 10° SW 21:33:30 52° WNW 21:39:02 10° NNE
CZ-4B DEB 4.4 21:32:26 32° SSE 21:33:57 72° ENE 21:37:28 10° N
Cosmos 2315 Rocket 4.3 21:34:29 10° N 21:40:30 47° E 21:43:24 29° SE
Helios 1A 3.1 21:41:23 38° SE 21:42:45 58° ENE 21:46:56 10° N
Meteor 1-23 Rocket 4.1 21:38:18 10° N 21:43:51 70° E 21:47:03 26° SSE
Cosmos 2322 3.7 21:39:15 10° S 21:44:46 60° ESE 21:50:21 10° NNE
ERS-1 Rocket 3.5 21:46:40 34° E 21:47:42 38° ENE 21:52:21 10° N
DELTA 2 R/B (1) 4.4 21:42:38 10° W 21:47:51 40° SSW 21:50:09 27° SSE
ATLAS 3B R/B 3.2 21:45:18 10° NNW 21:51:36 41° NE 21:53:55 31° E
Cosmos 2360 Rocket 2.1 21:48:16 10° SSW 21:53:54 90° ESE 21:59:33 10° NNE
OAO 1 Rocket 4.3 21:49:14 10° W 21:54:34 80° S 21:56:30 41° E
Meteor 1-29 3.5 21:51:26 10° NNE 21:54:00 45° NE 21:54:00 45° NE
COSMOS 2428 3.1 21:55:48 38° ESE 21:55:48 38° ESE 22:01:00 10° NE
Cosmos 1939 Rocket 3.5 21:53:53 25° SSW 21:56:00 54° W 21:59:52 10° NNW
USA 267 4.3 21:51:52 14° S 21:56:50 37° SW 22:02:49 10° WNW
Cosmos 1536 4.2 21:53:34 10° SSW 21:57:22 38° W 22:01:12 10° N
Envisat 4.1 21:54:03 10° S 21:58:51 43° W 22:03:41 10° NNW
Lacrosse 5 rocket 3.8 21:59:25 10° W 22:01:17 13° WSW 22:03:12 10° SSW
Cosmos 1932 4.4 21:55:35 10° NNW 22:02:05 78° ENE 22:04:25 42° SE
H-2A R/B 3.1 22:08:23 27° ENE 22:08:23 27° ENE 22:12:06 10° NNE
Cosmos 482 Debris 4.4 22:03:19 10° SW 22:07:13 55° SW 22:07:13 55° SW
Cosmos 2333 Rocket 4.4 22:13:05 11° NE 22:13:05 11° NE 22:13:25 10° NE
SAR-Lupe-4 4.4 22:12:33 43° N 22:12:33 43° N 22:15:08 10° N
NOAA 11 4.1 22:12:03 51° SSE 22:13:28 80° ENE 22:19:00 10° N
Cosmos 1238 Rocket 4.1 22:08:22 10° N 22:14:52 52° E 22:15:42 49° ESE
Cosmos 2333 4.4 22:16:47 51° E 22:16:47 51° E 22:21:37 10° NNE
Meteosat 1 Rocket2 4.4 22:12:27 10° WSW 22:17:43 45° S 22:18:09 44° SSE
Cosmos 1302 Rocket 3.8 22:19:33 67° SSE 22:20:09 75° ESE 22:25:26 10° NNE
MetOp-A 4.0 22:24:43 71° SE 22:25:16 82° ENE 22:30:38 10° N
Cosmos 1486 Rocket 4.4 22:21:37 10° N 22:26:11 47° NE 22:26:11 47° NE
ATLAS 2AS CENTAUR R/B 4.1 22:20:20 10° WSW 22:27:38 45° NW 22:35:22 10° NNE
Aureole 3 Rocket 4.0 22:21:29 10° N 22:29:28 66° E 22:30:15 61° ESE
Delta 2 Rocket 4.0 22:25:42 10° W 22:28:55 53° W 22:28:55 53° W
Helios 1B rocket 4.1 22:27:45 10° N 22:31:26 33° WNW 22:33:57 17° SW
SPOT 5 3.4 22:33:36 49° NNE 22:33:36 49° NNE 22:37:18 10° N
BREEZE M DEB (TANK) 3.2 22:25:10 10° WSW 22:33:02 53° NW 22:33:38 47° N
Cosmos 1241 Rocket 4.4 22:26:36 10° SSW 22:33:11 88° ESE 22:39:43 10° NNE
Intelsat 5-1 Rocket 4.3 22:17:06 10° WSW 22:34:44 42° SSW 22:36:17 39° S
Lacrosse 5 4.1 22:35:04 10° W 22:39:08 24° NW 22:43:15 10° NNE
Cosmos 1066 Rocket 4.2 22:36:19 10° N 22:41:15 69° NE 22:41:15 69° NE
Centaur D AC-29 4.1 22:39:05 10° SW 22:43:39 17° SSW 22:43:39 17° SSW
ARGOS 3.2 22:49:54 73° W 22:49:54 73° W 22:55:03 10° NNW
Atlas Centaur 2 3.6 22:44:57 10° W 22:51:30 34° SSW 22:51:30 34° SSW
Nadezhda 1 Rocket 4.3 22:47:41 10° N 22:53:09 55° NE 22:53:09 55° NE
Cosmos 2263 Rocket 4.2 22:59:56 10° NW 23:03:50 19° W 23:05:42 16° SW
Cosmos 2278 Rocket 3.7 23:03:11 10° N 23:06:39 27° NNE 23:06:39 27° NNE
SPOT 1/Viking Rocket 4.3 23:10:41 50° NNW 23:10:41 50° NNW 23:14:32 10° NNW
Cosmos 1818 4.4 23:10:06 46° WNW 23:10:38 47° WNW 23:15:55 10° NNE
Cosmos 1844 Rocket 3.2 23:05:44 10° NNW 23:10:10 56° NNW 23:10:10 56° NNW
Terra 3.7 23:16:55 25° N 23:16:55 25° N 23:19:00 10° N
Cosmos 2219 Rocket 3.2 23:24:26 41° N 23:24:26 41° N 23:28:14 10° NNE
NOSS 3-2 (A) 4.0 23:18:11 10° NNW 23:25:38 79° NNE 23:25:38 79° NNE
USA 238 DEB 4.2 23:20:55 10° NW 23:27:24 54° WSW 23:27:24 54° WSW
USA 238 4.2 23:21:01 10° NW 23:27:30 54° WSW 23:27:30 54° WSW
ATLAS 3B R/B 3.8 23:36:17 10° NW 23:41:11 32° W 23:41:11 32° W
H-2A R/B 4.0 23:49:02 23° WNW 23:49:02 23° WNW 23:51:32 10° NW
Cosmos 2333 Rocket 3.8 23:55:01 31° NNW 23:55:01 31° NNW 23:58:23 10° N
